| time (UTC) | temp F | wind direction | speed MPH | gust MPH | rain 1hr in | rain 24hr in | rain mn in | humidity % | barometer mb |
| 20260504022559 | 61 | 232 | 1.0 | 4.0 | 0.00 | 0.00 | 0.00 | 57 | 1001.2 |
| 20260504021556 | 62 | 215 | 1.0 | 2.0 | 0.00 | 0.00 | 0.00 | 56 | 1001.3 |
| 20260504020554 | 61 | 191 | 1.0 | 2.0 | 0.00 | 0.00 | 0.00 | 57 | 1001.0 |
| 20260504015551 | 61 | 183 | 2.0 | 2.0 | 0.00 | 0.00 | 0.00 | 58 | 1001.1 |
| 20260504014548 | 61 | 175 | 2.0 | 4.0 | 0.00 | 0.00 | 0.00 | 56 | 1001.0 |
| 20260504013545 | 60 | 187 | 2.0 | 4.0 | 0.00 | 0.00 | 0.00 | 58 | 1001.0 |
| 20260504012543 | 61 | 167 | 2.0 | 4.0 | 0.00 | 0.00 | 0.00 | 58 | 1001.0 |
| 20260504011540 | 61 | 180 | 2.0 | 4.0 | 0.00 | 0.00 | 0.00 | 57 | 1000.8 |
| 20260504010538 | 61 | 163 | 2.0 | 2.0 | 0.00 | 0.00 | 0.00 | 57 | 1000.7 |
| 20260504005535 | 61 | 170 | 2.0 | 4.0 | 0.00 | 0.00 | 0.00 | 56 | 1000.5 |
| 20260504004532 | 62 | 158 | 1.0 | 2.0 | 0.00 | 0.00 | 0.00 | 55 | 1000.3 |
| 20260504003530 | 63 | 153 | 1.0 | 2.0 | 0.00 | 0.00 | 0.00 | 53 | 1000.3 |
| 20260504002527 | 63 | 0.0 | 0.0 | 0.00 | 0.00 | 0.00 | 52 | 1000.2 | |
| 20260504001524 | 64 | 203 | 1.0 | 2.0 | 0.00 | 0.00 | 0.00 | 51 | 1000.2 |
| 20260504000522 | 64 | 0.0 | 0.0 | 0.00 | 0.00 | 0.00 | 50 | 1000.3 | |
| 20260503235519 | 66 | 174 | 2.0 | 4.0 | 0.00 | 0.00 | 0.00 | 48 | 1000.2 |
| 20260503234517 | 66 | 236 | 1.0 | 2.0 | 0.00 | 0.00 | 0.00 | 48 | 1000.1 |
| 20260503233614 | 66 | 171 | 1.0 | 4.0 | 0.00 | 0.00 | 0.00 | 48 | 1000.1 |
| 20260503232611 | 67 | 240 | 2.0 | 4.0 | 0.00 | 0.00 | 0.00 | 47 | 1000.1 |
| 20260503231609 | 67 | 265 | 4.0 | 8.0 | 0.00 | 0.00 | 0.00 | 46 | 1000.3 |
| 20260503230606 | 68 | 182 | 4.0 | 9.0 | 0.00 | 0.00 | 0.00 | 46 | 999.9 |
| 20260503225603 | 67 | 181 | 3.0 | 8.0 | 0.00 | 0.00 | 0.00 | 47 | 999.7 |
| 20260503224601 | 65 | 159 | 3.0 | 7.0 | 0.00 | 0.00 | 0.00 | 49 | 999.7 |
| 20260503223558 | 66 | 145 | 2.0 | 4.0 | 0.00 | 0.00 | 0.00 | 47 | 999.7 |
| 20260503222556 | 67 | 208 | 1.0 | 4.0 | 0.00 | 0.00 | 0.00 | 46 | 999.9 |
| 20260503221553 | 67 | 236 | 1.0 | 4.0 | 0.00 | 0.00 | 0.00 | 45 | 999.8 |
| 20260503220550 | 67 | 216 | 2.0 | 4.0 | 0.00 | 0.00 | 0.00 | 45 | 999.8 |
| 20260503215548 | 66 | 222 | 4.0 | 7.0 | 0.00 | 0.00 | 0.00 | 46 | 999.7 |
| 20260503214545 | 66 | 158 | 0.0 | 2.0 | 0.00 | 0.00 | 0.00 | 47 | 999.4 |
| 20260503213542 | 65 | 0.0 | 2.0 | 0.00 | 0.00 | 0.00 | 47 | 999.4 | |
| 20260503212539 | 64 | 0.0 | 0.0 | 0.00 | 0.00 | 0.00 | 49 | 999.2 | |
| 20260503211536 | 65 | 0.0 | 0.0 | 0.00 | 0.00 | 0.00 | 48 | 999.4 | |
| 20260503210534 | 65 | 0.0 | 0.0 | 0.00 | 0.00 | 0.00 | 47 | 999.3 | |
| 20260503205531 | 65 | 0.0 | 0.0 | 0.00 | 0.00 | 0.00 | 48 | 999.4 | |
| 20260503204528 | 65 | 135 | 0.0 | 2.0 | 0.00 | 0.00 | 0.00 | 46 | 999.4 |
| 20260503203526 | 64 | 0.0 | 0.0 | 0.00 | 0.00 | 0.00 | 49 | 999.4 | |
| 20260503202523 | 64 | 0.0 | 0.0 | 0.00 | 0.00 | 0.00 | 49 | 999.4 | |
| 20260503201520 | 65 | 113 | 0.0 | 2.0 | 0.00 | 0.00 | 0.00 | 46 | 999.4 |
| 20260503200518 | 65 | 52 | 1.0 | 2.0 | 0.00 | 0.00 | 0.00 | 46 | 999.6 |
| 20260503195515 | 65 | 0.0 | 0.0 | 0.00 | 0.00 | 0.00 | 49 | 999.6 | |
| 20260503194613 | 65 | 0.0 | 0.0 | 0.00 | 0.00 | 0.00 | 47 | 999.7 | |
| 20260503193610 | 65 | 0.0 | 0.0 | 0.00 | 0.00 | 0.00 | 48 | 999.6 | |
| 20260503192607 | 67 | 0.0 | 0.0 | 0.00 | 0.00 | 0.00 | 46 | 999.6 | |
| 20260503191605 | 67 | 0.0 | 0.0 | 0.00 | 0.00 | 0.00 | 44 | 999.6 | |
| 20260503190602 | 68 | 0.0 | 0.0 | 0.00 | 0.00 | 0.00 | 42 | 999.6 | |
| 20260503185600 | 70 | 0.0 | 0.0 | 0.00 | 0.00 | 0.00 | 40 | 999.6 | |
| 20260503184557 | 71 | 0.0 | 0.0 | 0.00 | 0.00 | 0.00 | 39 | 999.6 | |
| 20260503183554 | 72 | 142 | 1.0 | 2.0 | 0.00 | 0.00 | 0.00 | 37 | 999.5 |
| 20260503182552 | 72 | 0.0 | 0.0 | 0.00 | 0.00 | 0.00 | 37 | 999.5 | |
| 20260503181549 | 73 | 141 | 0.0 | 2.0 | 0.00 | 0.00 | 0.00 | 36 | 999.5 |
| 20260503180546 | 74 | 135 | 2.0 | 2.0 | 0.00 | 0.00 | 0.00 | 34 | 999.5 |
| 20260503175543 | 75 | 135 | 1.0 | 4.0 | 0.00 | 0.00 | 0.00 | 35 | 999.5 |
| 20260503174540 | 76 | 140 | 2.0 | 4.0 | 0.00 | 0.00 | 0.00 | 34 | 999.5 |
| 20260503173538 | 76 | 153 | 2.0 | 4.0 | 0.00 | 0.00 | 0.00 | 33 | 999.5 |
| 20260503172535 | 77 | 144 | 3.0 | 6.0 | 0.00 | 0.00 | 0.00 | 32 | 999.5 |
| 20260503171533 | 78 | 154 | 3.0 | 6.0 | 0.00 | 0.00 | 0.00 | 31 | 999.6 |
| 20260503170530 | 78 | 149 | 3.0 | 6.0 | 0.00 | 0.00 | 0.00 | 30 | 999.6 |
| 20260503150558 | 80 | 135 | 3.0 | 11.0 | 0.00 | 0.00 | 0.00 | 29 | 1000.1 |
| 20260503130526 | 81 | 198 | 6.0 | 9.0 | 0.00 | 0.00 | 0.00 | 29 | 1001.4 |
| 20260503110555 | 80 | 179 | 5.0 | 9.0 | 0.00 | 0.00 | 0.00 | 31 | 1002.5 |
| 20260503081610 | 75 | 168 | 5.0 | 9.0 | 0.00 | 0.00 | 0.00 | 35 | 1003.5 |
| 20260503080607 | 74 | 170 | 5.0 | 8.0 | 0.00 | 0.00 | 0.00 | 35 | 1003.5 |
| 20260503072557 | 72 | 186 | 5.0 | 11.0 | 0.00 | 0.00 | 0.00 | 37 | 1003.4 |
| 20260503071554 | 72 | 184 | 4.0 | 8.0 | 0.00 | 0.00 | 0.00 | 39 | 1003.5 |
| 20260503070551 | 71 | 166 | 4.0 | 8.0 | 0.00 | 0.00 | 0.00 | 39 | 1003.4 |
| 20260503054530 | 58 | 158 | 0.0 | 2.0 | 0.00 | 0.00 | 0.00 | 61 | 1003.5 |
| 20260503053527 | 56 | 0.0 | 0.0 | 0.00 | 0.00 | 0.00 | 64 | 1003.4 | |
| 20260503052525 | 54 | 0.0 | 0.0 | 0.00 | 0.00 | 0.00 | 62 | 1003.3 | |
| 20260503051522 | 53 | 135 | 1.0 | 2.0 | 0.00 | 0.00 | 0.00 | 64 | 1003.4 |
| 20260503050520 | 52 | 135 | 1.0 | 2.0 | 0.00 | 0.00 | 0.00 | 65 | 1003.3 |
| 20260503045517 | 53 | 135 | 1.0 | 2.0 | 0.00 | 0.00 | 0.00 | 61 | 1003.3 |
| 20260503044614 | 52 | 158 | 0.0 | 2.0 | 0.00 | 0.00 | 0.00 | 64 | 1003.3 |
| 20260503043612 | 54 | 0.0 | 0.0 | 0.00 | 0.00 | 0.00 | 58 | 1003.4 | |
| 20260503042609 | 53 | 0.0 | 0.0 | 0.00 | 0.00 | 0.00 | 58 | 1003.3 | |
| 20260503041606 | 51 | 0.0 | 0.0 | 0.00 | 0.00 | 0.00 | 63 | 1003.4 | |
| 20260503040603 | 54 | 158 | 1.0 | 2.0 | 0.00 | 0.00 | 0.00 | 56 | 1003.3 |
| 20260503035601 | 54 | 158 | 2.0 | 2.0 | 0.00 | 0.00 | 0.00 | 56 | 1003.2 |
| 20260503034558 | 53 | 139 | 2.0 | 2.0 | 0.00 | 0.00 | 0.00 | 57 | 1003.3 |
| 20260503033556 | 53 | 135 | 1.0 | 2.0 | 0.00 | 0.00 | 0.00 | 58 | 1003.2 |
| 20260503032553 | 54 | 154 | 2.0 | 2.0 | 0.00 | 0.00 | 0.00 | 57 | 1003.3 |
| 20260503031551 | 54 | 158 | 2.0 | 2.0 | 0.00 | 0.00 | 0.00 | 57 | 1003.3 |
| 20260503030548 | 54 | 158 | 2.0 | 2.0 | 0.00 | 0.00 | 0.00 | 57 | 1003.3 |
| 20260503025545 | 54 | 158 | 2.0 | 2.0 | 0.00 | 0.00 | 0.00 | 57 | 1003.4 |
| 20260503024542 | 53 | 158 | 2.0 | 2.0 | 0.00 | 0.00 | 0.00 | 58 | 1003.5 |
| 20260503023540 | 54 | 158 | 2.0 | 2.0 | 0.00 | 0.00 | 0.00 | 57 | 1003.5 |